Weather History for Elmira, NY

Change the Weather History Date:

Sunday, September 1, 2013

  Actual Average Record
Temperature  
Mean Temperature 75 °F -  
Max Temperature 84 °F 77 °F 100 °F (1953)
Min Temperature 68 °F 52 °F 39 °F (1967)
Cooling Degree Days 10    
Growing Degree Days 25 (Base 50)    
Moisture  
Dew Point 66 °F    
Average Humidity 81    
Maximum Humidity 94    
Minimum Humidity 54    
Precipitation  
Precipitation 0.06 in - - ()
Sea Level Pressure  
Sea Level Pressure 29.82 in    
Wind  
Wind Speed 2 mph (SW)    
Max Wind Speed 8 mph    
Max Gust Speed -    
Visibility 8 miles    
Events Rain , Thunderstorm    
Averages and records for this station are not official NWS values.
T = Trace of Precipitation, MM = Missing Value Source: NWS Daily Summary

Daily Weather History Graph

Daily Weather History Graph

Search for Another Location

Airport:

Trip Planner

Search our weather history database for the weather conditions in past years. The results will help you decide how hot, cold, wet, or windy it might be!

Date:

Astronomy

Sep. 01, 2013 Rise Set
Actual Time 6:33 AM EDT 7:40 PM EDT
Civil Twilight 6:04 AM EDT 8:09 PM EDT
Nautical Twilight 5:29 AM EDT 8:43 PM EDT
Astronomical Twilight 4:53 AM EDT 9:19 PM EDT
Moon 2:50 AM EDT (9/1) 5:19 PM EDT (9/1)
Length of Visible Light 14h 05m
Length of Day
13h 07m
Waning Crescent, 14% of the Moon is Illuminated
Sep 1
Waning Crescent
Sep 5
New
Sep 12
First Quarter
Sep 19
Full
Sep 26
Last Quarter

Hourly Weather History & Observations

Time (EDT) Temp. Heat Index Dew Point Humidity Pressure Visibility Wind Dir Wind Speed Gust Speed Precip Events Conditions
12:09 AM 69.8 °F - 66.2 °F 88% 29.83 in 5.0 mi Calm Calm - N/A   Mostly Cloudy
12:53 AM 70.0 °F - 66.9 °F 90% 29.82 in 9.0 mi WSW 3.5 mph - N/A   Overcast
1:53 AM 70.0 °F - 68.0 °F 93% 29.81 in 6.0 mi Calm Calm - N/A   Overcast
2:53 AM 69.1 °F - 66.9 °F 93% 29.80 in 8.0 mi West 3.5 mph - N/A   Overcast
3:07 AM 69.8 °F - 66.2 °F 88% 29.83 in 7.0 mi West 4.6 mph - N/A   Overcast
3:53 AM 68.0 °F - 66.0 °F 93% 29.81 in 8.0 mi SW 4.6 mph - N/A   Overcast
4:13 AM 68.0 °F - 66.2 °F 94% 29.83 in 9.0 mi SSW 4.6 mph - N/A   Overcast
4:39 AM 68.0 °F - 64.4 °F 88% 29.84 in 10.0 mi WNW 4.6 mph - N/A   Overcast
4:53 AM 68.0 °F - 64.9 °F 90% 29.82 in 8.0 mi Calm Calm - N/A   Overcast
5:02 AM 68.0 °F - 64.4 °F 88% 29.84 in 10.0 mi Calm Calm - N/A   Overcast
5:16 AM 68.0 °F - 64.4 °F 88% 29.85 in 10.0 mi Calm Calm - N/A   Mostly Cloudy
5:41 AM 68.0 °F - 64.4 °F 88% 29.85 in 9.0 mi Calm Calm - N/A   Mostly Cloudy
5:53 AM 68.0 °F - 64.9 °F 90% 29.83 in 10.0 mi Calm Calm - N/A   Overcast
6:27 AM 68.0 °F - 64.4 °F 88% 29.85 in 2.0 mi Calm Calm - N/A   Overcast
6:53 AM 68.0 °F - 64.9 °F 90% 29.84 in 2.0 mi SSW 3.5 mph - N/A   Overcast
7:53 AM 68.0 °F - 66.0 °F 93% 29.85 in 2.0 mi Calm Calm - N/A   Overcast
8:45 AM 69.8 °F - 66.2 °F 88% 29.86 in 2.0 mi SSE 3.5 mph - N/A   Overcast
8:53 AM 69.1 °F - 66.9 °F 93% 29.85 in 2.0 mi SSE 3.5 mph - N/A   Overcast
9:19 AM 69.8 °F - 66.2 °F 88% 29.87 in 2.0 mi SW 3.5 mph - N/A   Overcast
9:53 AM 70.0 °F - 66.9 °F 90% 29.86 in 2.0 mi Calm Calm - N/A   Overcast
10:00 AM 71.6 °F - 66.2 °F 83% 29.87 in 6.0 mi Calm Calm - N/A   Overcast
10:53 AM 73.0 °F - 66.9 °F 81% 29.85 in 10.0 mi Calm Calm - N/A   Overcast
11:46 AM 75.2 °F - 66.2 °F 73% 29.86 in 10.0 mi East 3.5 mph - N/A   Overcast
11:53 AM 77.0 °F - 66.9 °F 71% 29.84 in 10.0 mi Calm Calm - N/A   Mostly Cloudy
12:53 PM 78.1 °F - 66.9 °F 68% 29.82 in 10.0 mi Variable 3.5 mph - N/A   Overcast
1:09 PM 77.0 °F - 66.2 °F 69% 29.84 in 10.0 mi Calm Calm - N/A   Overcast
1:29 PM 78.8 °F - 68.0 °F 69% 29.84 in 10.0 mi Calm Calm - N/A   Overcast
1:53 PM 81.0 °F 83.3 °F 66.9 °F 62% 29.81 in 10.0 mi Calm Calm - N/A   Scattered Clouds
2:26 PM 82.4 °F 85.4 °F 68.0 °F 62% 29.82 in 10.0 mi Calm Calm - N/A   Overcast
2:53 PM 82.0 °F 84.9 °F 68.0 °F 62% 29.79 in 10.0 mi Calm Calm - N/A   Overcast
3:09 PM 82.4 °F 85.4 °F 68.0 °F 62% 29.80 in 10.0 mi Variable 3.5 mph - N/A   Scattered Clouds
3:53 PM 82.0 °F 84.9 °F 68.0 °F 62% 29.78 in 10.0 mi WSW 5.8 mph - N/A   Partly Cloudy
4:53 PM 82.9 °F 85.4 °F 66.9 °F 58% 29.77 in 10.0 mi SSW 5.8 mph - N/A   Clear
5:53 PM 82.0 °F 83.4 °F 64.0 °F 54% 29.76 in 10.0 mi SSW 4.6 mph - N/A   Clear
6:53 PM 77.0 °F - 68.0 °F 74% 29.76 in 10.0 mi Calm Calm - N/A   Clear
7:53 PM 75.9 °F - 68.0 °F 76% 29.78 in 10.0 mi Calm Calm - N/A Thunderstorm Overcast
8:12 PM 73.4 °F - 68.0 °F 83% 29.79 in 10.0 mi Calm Calm - N/A   Mostly Cloudy
8:53 PM 72.0 °F - 68.0 °F 87% 29.78 in 9.0 mi WNW 3.5 mph - N/A   Mostly Cloudy
9:53 PM 73.0 °F - 68.0 °F 84% 29.77 in 9.0 mi Calm Calm - N/A   Mostly Cloudy
10:22 PM 71.6 °F - 68.0 °F 88% 29.79 in 10.0 mi Calm Calm - N/A Thunderstorm Mostly Cloudy
10:53 PM 73.0 °F - 66.0 °F 79% 29.78 in 5.0 mi WSW 8.1 mph - 0.06 in Rain , Thunderstorm Light Rain
11:37 PM 69.8 °F - 66.2 °F 88% 29.80 in 9.0 mi West 3.5 mph - 0.00 in   Partly Cloudy
11:53 PM 69.1 °F - 66.9 °F 93% 29.78 in 9.0 mi West 3.5 mph - 0.00 in   Clear